Wetterdaten: Donnerstag, 19.10.2017
Datum Zeit Temp. A. Aussen2m Feuchte A. Feuchte 2 Luftdruck Regen Wind Richtung Richtung Sonnenschein
19.10.2017 00:04 14,0 C 0,0 C 79 % 0 % 1010,9 hPa 0,0 l/m 4,1 km/h (1 Bft) SO 140 0 min
19.10.2017 00:09 14,0 C 0,0 C 79 % 0 % 1010,9 hPa 0,0 l/m 5,0 km/h (1 Bft) SO22.5 140 0 min
19.10.2017 00:14 14,0 C 0,0 C 79 % 0 % 1010,9 hPa 0,0 l/m 0,7 km/h (0 Bft) SO 140 0 min
19.10.2017 00:19 14,0 C 0,0 C 79 % 0 % 1010,9 hPa 0,0 l/m 1,0 km/h (0 Bft) SO 145 0 min
19.10.2017 00:24 13,9 C 0,0 C 80 % 0 % 1010,9 hPa 0,0 l/m 0,7 km/h (0 Bft) SO 140 0 min
19.10.2017 00:29 13,8 C 0,0 C 80 % 0 % 1010,9 hPa 0,0 l/m 0,6 km/h (0 Bft) SO22.5 140 0 min
19.10.2017 00:34 13,8 C 0,0 C 80 % 0 % 1010,9 hPa 0,0 l/m 4,0 km/h (1 Bft) SO22.5 130 0 min
19.10.2017 00:39 13,7 C 0,0 C 80 % 0 % 1010,9 hPa 0,0 l/m 0,6 km/h (0 Bft) S-SO 150 0 min
19.10.2017 00:45 13,6 C 0,0 C 80 % 0 % 1010,9 hPa 0,0 l/m 0,3 km/h (0 Bft) SO 140 0 min
19.10.2017 00:49 13,6 C 0,0 C 80 % 0 % 1010,9 hPa 0,0 l/m 0,4 km/h (0 Bft) SO22.5 125 0 min
19.10.2017 00:54 13,6 C 0,0 C 80 % 0 % 1010,9 hPa 0,0 l/m 0,6 km/h (0 Bft) SO22.5 145 0 min
19.10.2017 00:59 13,6 C 0,0 C 80 % 0 % 1010,9 hPa 0,0 l/m 0,3 km/h (0 Bft) SO22.5 135 0 min
19.10.2017 01:04 13,6 C 0,0 C 80 % 0 % 1010,9 hPa 0,0 l/m 0,2 km/h (0 Bft) SO 140 0 min
19.10.2017 01:09 13,6 C 0,0 C 80 % 0 % 1010,9 hPa 0,0 l/m 10,0 km/h (2 Bft) SO22.5 145 0 min
19.10.2017 01:14 13,6 C 0,0 C 80 % 0 % 1010,9 hPa 0,0 l/m 5,5 km/h (2 Bft) SO22.5 145 0 min
19.10.2017 01:19 13,7 C 0,0 C 80 % 0 % 1010,9 hPa 0,0 l/m 7,0 km/h (2 Bft) S-SO22.5 155 0 min
19.10.2017 01:24 13,7 C 0,0 C 80 % 0 % 1010,9 hPa 0,0 l/m 1,4 km/h (1 Bft) S-SO22.5 150 0 min
19.10.2017 01:29 13,7 C 0,0 C 80 % 0 % 1010,9 hPa 0,0 l/m 5,4 km/h (2 Bft) SO22.5 140 0 min
19.10.2017 01:34 13,6 C 0,0 C 79 % 0 % 1010,9 hPa 0,0 l/m 0,7 km/h (0 Bft) SO22.5 135 0 min
19.10.2017 01:39 13,5 C 0,0 C 79 % 0 % 1010,9 hPa 0,0 l/m 0,1 km/h (0 Bft) SO22.5 135 0 min
19.10.2017 01:44 13,5 C 0,0 C 80 % 0 % 1010,9 hPa 0,0 l/m 5,2 km/h (1 Bft) SO22.5 135 0 min
19.10.2017 01:49 13,5 C 0,0 C 79 % 0 % 1010,9 hPa 0,0 l/m 5,7 km/h (2 Bft) S-SO22.5 150 0 min
19.10.2017 01:55 13,5 C 0,0 C 80 % 0 % 1010,9 hPa 0,0 l/m 6,8 km/h (2 Bft) S-SO22.5 150 0 min
19.10.2017 01:59 13,5 C 0,0 C 79 % 0 % 1010,9 hPa 0,0 l/m 6,6 km/h (2 Bft) SO22.5 145 0 min
19.10.2017 02:04 13,5 C 0,0 C 79 % 0 % 1010,9 hPa 0,0 l/m 4,9 km/h (1 Bft) S-SO22.5 150 0 min
19.10.2017 02:10 13,4 C 0,0 C 79 % 0 % 1010,9 hPa 0,0 l/m 4,8 km/h (1 Bft) SO22.5 140 0 min
19.10.2017 02:14 13,4 C 0,0 C 79 % 0 % 1010,9 hPa 0,0 l/m 3,5 km/h (1 Bft) S-SO22.5 150 0 min
19.10.2017 02:19 13,4 C 0,0 C 79 % 0 % 1010,9 hPa 0,0 l/m 0,9 km/h (0 Bft) S-SO22.5 150 0 min
19.10.2017 02:24 13,4 C 0,0 C 79 % 0 % 1010,9 hPa 0,0 l/m 1,5 km/h (1 Bft) SO22.5 140 0 min
19.10.2017 02:29 13,4 C 0,0 C 79 % 0 % 1010,9 hPa 0,0 l/m 0,9 km/h (0 Bft) SO22.5 140 0 min
19.10.2017 02:34 13,3 C 0,0 C 79 % 0 % 1010,9 hPa 0,0 l/m 0,2 km/h (0 Bft) SO22.5 130 0 min
19.10.2017 02:39 13,3 C 0,0 C 79 % 0 % 1010,9 hPa 0,0 l/m 0,6 km/h (0 Bft) SO22.5 135 0 min
19.10.2017 02:44 13,3 C 0,0 C 79 % 0 % 1010,9 hPa 0,0 l/m 0,8 km/h (0 Bft) SO22.5 130 0 min
19.10.2017 02:49 13,3 C 0,0 C 79 % 0 % 1010,9 hPa 0,0 l/m 0,6 km/h (0 Bft) SO45 140 0 min
19.10.2017 02:54 13,3 C 0,0 C 79 % 0 % 1010,9 hPa 0,0 l/m 1,0 km/h (0 Bft) SO22.5 135 0 min
19.10.2017 02:59 13,2 C 0,0 C 79 % 0 % 1010,9 hPa 0,0 l/m 0,4 km/h (0 Bft) S-SO 150 0 min
19.10.2017 03:04 13,2 C 0,0 C 79 % 0 % 1010,9 hPa 0,0 l/m 6,1 km/h (2 Bft) SO45 140 0 min
19.10.2017 03:09 13,2 C 0,0 C 79 % 0 % 1010,9 hPa 0,0 l/m 0,1 km/h (0 Bft) SO22.5 130 0 min
19.10.2017 03:14 13,1 C 0,0 C 79 % 0 % 1010,9 hPa 0,0 l/m 0,3 km/h (0 Bft) SO 135 0 min
19.10.2017 03:20 13,1 C 0,0 C 80 % 0 % 1010,9 hPa 0,0 l/m 0,9 km/h (0 Bft) SO22.5 140 0 min
19.10.2017 03:24 13,1 C 0,0 C 80 % 0 % 1010,9 hPa 0,0 l/m 0,5 km/h (0 Bft) SO22.5 135 0 min
19.10.2017 03:29 13,1 C 0,0 C 80 % 0 % 1010,9 hPa 0,0 l/m 1,5 km/h (1 Bft) SO22.5 140 0 min
19.10.2017 03:34 13,1 C 0,0 C 80 % 0 % 1010,9 hPa 0,0 l/m 5,6 km/h (2 Bft) SO 145 0 min
19.10.2017 03:39 13,1 C 0,0 C 80 % 0 % 1010,9 hPa 0,0 l/m 6,9 km/h (2 Bft) SO22.5 145 0 min
19.10.2017 03:44 13,1 C 0,0 C 80 % 0 % 1010,9 hPa 0,0 l/m 7,7 km/h (2 Bft) S-SO22.5 150 0 min
19.10.2017 03:49 13,1 C 0,0 C 80 % 0 % 1010,9 hPa 0,0 l/m 10,1 km/h (2 Bft) S22.5 170 0 min
19.10.2017 03:54 13,2 C 0,0 C 80 % 0 % 1010,9 hPa 0,0 l/m 10,1 km/h (2 Bft) S-SO45 155 0 min
19.10.2017 03:59 13,1 C 0,0 C 80 % 0 % 1010,9 hPa 0,0 l/m 7,2 km/h (2 Bft) S-SO22.5 150 0 min
19.10.2017 04:05 13,1 C 0,0 C 80 % 0 % 1010,9 hPa 0,0 l/m 8,2 km/h (2 Bft) S-SO22.5 155 0 min
19.10.2017 04:09 13,1 C 0,0 C 80 % 0 % 1010,9 hPa 0,0 l/m 8,3 km/h (2 Bft) S-SO22.5 160 0 min
19.10.2017 04:14 13,1 C 0,0 C 80 % 0 % 1010,9 hPa 0,0 l/m 7,0 km/h (2 Bft) S-SO22.5 150 0 min
19.10.2017 04:19 13,2 C 0,0 C 80 % 0 % 1010,9 hPa 0,0 l/m 9,3 km/h (2 Bft) S-SO45 150 0 min
19.10.2017 04:24 13,3 C 0,0 C 80 % 0 % 1010,9 hPa 0,0 l/m 6,5 km/h (2 Bft) S-SO45 160 0 min
19.10.2017 04:29 13,3 C 0,0 C 80 % 0 % 1010,9 hPa 0,0 l/m 0,0 km/h (0 Bft) SO22.5 135 0 min
19.10.2017 04:34 13,2 C 0,0 C 80 % 0 % 1010,9 hPa 0,0 l/m 1,0 km/h (0 Bft) O-SO22.5 120 0 min
19.10.2017 04:39 13,2 C 0,0 C 80 % 0 % 1010,9 hPa 0,0 l/m 0,6 km/h (0 Bft) O-SO 120 0 min
19.10.2017 04:44 13,1 C 0,0 C 80 % 0 % 1010,9 hPa 0,0 l/m 0,3 km/h (0 Bft) O-SO 120 0 min
19.10.2017 04:49 12,9 C 0,0 C 80 % 0 % 1010,9 hPa 0,0 l/m 0,1 km/h (0 Bft) SO22.5 130 0 min
19.10.2017 04:54 12,9 C 0,0 C 80 % 0 % 1010,9 hPa 0,0 l/m 0,3 km/h (0 Bft) SO45 140 0 min
19.10.2017 05:00 12,8 C 0,0 C 80 % 0 % 1010,9 hPa 0,0 l/m 0,9 km/h (0 Bft) SO45 135 0 min
19.10.2017 05:04 12,7 C 0,0 C 80 % 0 % 1010,9 hPa 0,0 l/m 0,4 km/h (0 Bft) O-SO22.5 115 0 min
19.10.2017 05:09 12,5 C 0,0 C 80 % 0 % 1010,9 hPa 0,0 l/m 0,0 km/h (0 Bft) SO22.5 135 0 min
19.10.2017 05:15 12,4 C 0,0 C 80 % 0 % 1010,9 hPa 0,0 l/m 0,0 km/h (0 Bft) SO 130 0 min
19.10.2017 05:19 12,4 C 0,0 C 80 % 0 % 1010,9 hPa 0,0 l/m 0,1 km/h (0 Bft) SO 140 0 min
19.10.2017 05:24 12,4 C 0,0 C 80 % 0 % 1010,9 hPa 0,0 l/m 0,1 km/h (0 Bft) SO 145 0 min
19.10.2017 05:29 12,5 C 0,0 C 81 % 0 % 1010,9 hPa 0,0 l/m 5,1 km/h (1 Bft) S-SO22.5 150 0 min
19.10.2017 05:34 12,6 C 0,0 C 81 % 0 % 1010,9 hPa 0,0 l/m 5,9 km/h (2 Bft) S-SO22.5 150 0 min
19.10.2017 05:39 12,6 C 0,0 C 81 % 0 % 1010,9 hPa 0,0 l/m 4,3 km/h (1 Bft) SO 145 0 min
19.10.2017 05:44 12,6 C 0,0 C 81 % 0 % 1010,9 hPa 0,0 l/m 1,3 km/h (1 Bft) SO22.5 145 0 min
19.10.2017 05:49 12,7 C 0,0 C 81 % 0 % 1010,9 hPa 0,0 l/m 0,9 km/h (0 Bft) SO 145 0 min
19.10.2017 05:54 12,8 C 0,0 C 81 % 0 % 1010,9 hPa 0,0 l/m 0,1 km/h (0 Bft) SO22.5 135 0 min
19.10.2017 05:59 12,9 C 0,0 C 81 % 0 % 1010,9 hPa 0,0 l/m 0,7 km/h (0 Bft) SO22.5 145 0 min
19.10.2017 06:04 12,9 C 0,0 C 81 % 0 % 1010,9 hPa 0,0 l/m 0,3 km/h (0 Bft) SO 135 0 min
19.10.2017 06:09 13,0 C 0,0 C 81 % 0 % 1010,9 hPa 0,0 l/m 0,1 km/h (0 Bft) SO22.5 135 0 min
19.10.2017 06:14 13,0 C 0,0 C 81 % 0 % 1010,9 hPa 0,0 l/m 0,0 km/h (0 Bft) SO 135 0 min
19.10.2017 06:19 13,0 C 0,0 C 81 % 0 % 1010,9 hPa 0,0 l/m 0,1 km/h (0 Bft) SO22.5 130 0 min
19.10.2017 06:25 13,0 C 0,0 C 81 % 0 % 1010,9 hPa 0,0 l/m 0,1 km/h (0 Bft) SO22.5 125 0 min
19.10.2017 06:29 13,0 C 0,0 C 81 % 0 % 1010,9 hPa 0,0 l/m 0,6 km/h (0 Bft) SO22.5 125 0 min
19.10.2017 06:34 12,9 C 0,0 C 81 % 0 % 1010,9 hPa 0,0 l/m 0,1 km/h (0 Bft) SO22.5 130 0 min
19.10.2017 06:39 12,9 C 0,0 C 81 % 0 % 1009,9 hPa 0,0 l/m 0,3 km/h (0 Bft) SO22.5 130 0 min
19.10.2017 06:44 12,8 C 0,0 C 81 % 0 % 1009,9 hPa 0,0 l/m 0,0 km/h (0 Bft) SO 145 0 min
19.10.2017 06:49 12,8 C 0,0 C 81 % 0 % 1009,9 hPa 0,0 l/m 0,1 km/h (0 Bft) SO22.5 130 0 min
19.10.2017 06:54 12,7 C 0,0 C 81 % 0 % 1009,9 hPa 0,0 l/m 0,0 km/h (0 Bft) SO 135 0 min
19.10.2017 06:59 12,6 C 0,0 C 81 % 0 % 1009,9 hPa 0,0 l/m 0,0 km/h (0 Bft) SO22.5 125 0 min
19.10.2017 07:04 12,6 C 0,0 C 81 % 0 % 1009,9 hPa 0,0 l/m 0,0 km/h (0 Bft) O-SO22.5 120 0 min
19.10.2017 07:10 12,6 C 0,0 C 81 % 0 % 1009,9 hPa 0,0 l/m 0,0 km/h (0 Bft) SO 140 0 min
19.10.2017 07:14 12,5 C 0,0 C 81 % 0 % 1009,9 hPa 0,0 l/m 0,0 km/h (0 Bft) SO22.5 135 0 min
19.10.2017 07:19 12,6 C 0,0 C 81 % 0 % 1009,9 hPa 0,0 l/m 0,7 km/h (0 Bft) SO22.5 145 0 min
19.10.2017 07:24 12,6 C 0,0 C 81 % 0 % 1009,9 hPa 0,0 l/m 1,2 km/h (1 Bft) SO22.5 145 0 min
19.10.2017 07:29 12,6 C 0,0 C 81 % 0 % 1009,9 hPa 0,0 l/m 6,3 km/h (2 Bft) S-SO22.5 150 0 min
19.10.2017 07:35 12,5 C 0,0 C 81 % 0 % 1009,9 hPa 0,0 l/m 0,5 km/h (0 Bft) SO22.5 140 0 min
19.10.2017 07:39 12,5 C 0,0 C 81 % 0 % 1009,9 hPa 0,0 l/m 0,3 km/h (0 Bft) S-SO22.5 150 0 min
19.10.2017 07:44 12,5 C 0,0 C 81 % 0 % 1009,9 hPa 0,0 l/m 0,7 km/h (0 Bft) SO22.5 135 0 min
19.10.2017 07:49 12,5 C 0,0 C 81 % 0 % 1009,9 hPa 0,0 l/m 6,2 km/h (2 Bft) SO22.5 145 0 min
19.10.2017 07:54 12,5 C 0,0 C 81 % 0 % 1009,9 hPa 0,0 l/m 6,5 km/h (2 Bft) S-SO22.5 150 0 min
19.10.2017 07:59 12,5 C 0,0 C 81 % 0 % 1009,9 hPa 0,0 l/m 7,0 km/h (2 Bft) S-SO 150 0 min
19.10.2017 08:04 12,6 C 0,0 C 81 % 0 % 1009,9 hPa 0,0 l/m 4,2 km/h (1 Bft) S-SO22.5 150 0 min
19.10.2017 08:09 12,6 C 0,0 C 81 % 0 % 1009,9 hPa 0,0 l/m 6,1 km/h (2 Bft) S-SO22.5 150 0 min
19.10.2017 08:14 12,6 C 0,0 C 81 % 0 % 1009,9 hPa 0,0 l/m 6,3 km/h (2 Bft) S-SO22.5 165 0 min
19.10.2017 08:20 12,5 C 0,0 C 81 % 0 % 1009,9 hPa 0,0 l/m 4,2 km/h (1 Bft) S-SO 155 0 min
19.10.2017 08:24 12,5 C 0,0 C 81 % 0 % 1009,9 hPa 0,0 l/m 0,1 km/h (0 Bft) SO 140 0 min
19.10.2017 08:29 12,4 C 0,0 C 81 % 0 % 1009,9 hPa 0,0 l/m 0,1 km/h (0 Bft) SO22.5 125 0 min
19.10.2017 08:34 12,5 C 0,0 C 81 % 0 % 1009,9 hPa 0,0 l/m 0,4 km/h (0 Bft) SO22.5 135 0 min
19.10.2017 08:39 12,5 C 0,0 C 81 % 0 % 1009,9 hPa 0,0 l/m 0,7 km/h (0 Bft) SO22.5 135 0 min
19.10.2017 08:45 12,5 C 0,0 C 81 % 0 % 1009,9 hPa 0,0 l/m 0,3 km/h (0 Bft) SO22.5 135 0 min
19.10.2017 08:49 12,6 C 0,0 C 81 % 0 % 1009,9 hPa 0,0 l/m 4,2 km/h (1 Bft) SO22.5 140 0 min
19.10.2017 08:54 12,7 C 0,0 C 81 % 0 % 1009,9 hPa 0,0 l/m 0,3 km/h (0 Bft) SO 145 0 min
19.10.2017 08:59 12,8 C 0,0 C 81 % 0 % 1009,9 hPa 0,0 l/m 0,7 km/h (0 Bft) SO22.5 140 0 min
19.10.2017 09:04 12,8 C 0,0 C 81 % 0 % 1009,9 hPa 0,0 l/m 0,4 km/h (0 Bft) SO22.5 130 0 min
19.10.2017 09:09 13,0 C 0,0 C 81 % 0 % 1009,9 hPa 0,0 l/m 0,2 km/h (0 Bft) SO45 140 0 min
19.10.2017 09:14 13,1 C 0,0 C 81 % 0 % 1009,9 hPa 0,0 l/m 0,2 km/h (0 Bft) SO45 125 0 min
19.10.2017 09:19 13,2 C 0,0 C 81 % 0 % 1009,9 hPa 0,0 l/m 0,3 km/h (0 Bft) SO22.5 130 0 min
19.10.2017 09:24 13,2 C 0,0 C 81 % 0 % 1009,9 hPa 0,0 l/m 0,4 km/h (0 Bft) SO22.5 140 0 min
19.10.2017 09:29 13,5 C 0,0 C 81 % 0 % 1009,9 hPa 0,0 l/m 8,1 km/h (2 Bft) S-SO22.5 155 0 min
19.10.2017 09:34 13,6 C 0,0 C 80 % 0 % 1009,9 hPa 0,0 l/m 11,6 km/h (2 Bft) S-SO22.5 165 0 min
19.10.2017 09:39 13,8 C 0,0 C 80 % 0 % 1009,9 hPa 0,0 l/m 9,2 km/h (2 Bft) S-SO45 160 0 min
19.10.2017 09:44 14,0 C 0,0 C 79 % 0 % 1009,9 hPa 0,0 l/m 10,8 km/h (2 Bft) S-SO22.5 155 0 min
19.10.2017 09:49 14,1 C 0,0 C 78 % 0 % 1009,9 hPa 0,0 l/m 6,9 km/h (2 Bft) S-SO45 165 0 min
19.10.2017 09:55 14,5 C 0,0 C 78 % 0 % 1009,9 hPa 0,0 l/m 10,4 km/h (2 Bft) S-SO45 160 0 min
19.10.2017 09:59 14,9 C 0,0 C 77 % 0 % 1009,9 hPa 0,0 l/m 13,9 km/h (3 Bft) S-SO22.5 160 0 min
19.10.2017 10:04 15,0 C 0,0 C 76 % 0 % 1009,9 hPa 0,0 l/m 16,9 km/h (3 Bft) S45 170 0 min
19.10.2017 10:10 15,2 C 0,0 C 75 % 0 % 1010,9 hPa 0,0 l/m 13,8 km/h (3 Bft) S-SO22.5 165 0 min
19.10.2017 10:14 15,4 C 0,0 C 75 % 0 % 1010,9 hPa 0,0 l/m 12,0 km/h (2 Bft) S-SO22.5 165 0 min
19.10.2017 10:19 15,5 C 0,0 C 74 % 0 % 1010,9 hPa 0,0 l/m 11,0 km/h (2 Bft) S-SO45 155 0 min
19.10.2017 10:24 15,5 C 0,0 C 74 % 0 % 1010,9 hPa 0,0 l/m 17,6 km/h (3 Bft) S22.5 170 0 min
19.10.2017 10:29 15,5 C 0,0 C 74 % 0 % 1010,9 hPa 0,0 l/m 17,3 km/h (3 Bft) S-SO22.5 165 0 min
19.10.2017 10:35 15,6 C 0,0 C 73 % 0 % 1010,9 hPa 0,0 l/m 14,3 km/h (3 Bft) S-SO22.5 160 0 min
19.10.2017 10:39 15,6 C 0,0 C 73 % 0 % 1010,9 hPa 0,0 l/m 18,8 km/h (3 Bft) S-SO45 160 0 min
19.10.2017 10:44 15,7 C 0,0 C 73 % 0 % 1010,9 hPa 0,0 l/m 18,0 km/h (3 Bft) S-SO22.5 160 0 min
19.10.2017 10:49 15,8 C 0,0 C 73 % 0 % 1010,9 hPa 0,0 l/m 14,6 km/h (3 Bft) S-SO45 165 0 min
19.10.2017 10:54 15,9 C 0,0 C 72 % 0 % 1010,9 hPa 0,0 l/m 13,9 km/h (3 Bft) S-SO45 160 0 min
19.10.2017 10:59 16,1 C 0,0 C 72 % 0 % 1010,9 hPa 0,0 l/m 12,3 km/h (2 Bft) S-SO22.5 155 0 min
19.10.2017 11:04 16,3 C 0,0 C 72 % 0 % 1010,9 hPa 0,0 l/m 12,4 km/h (2 Bft) S-SO22.5 155 0 min
19.10.2017 11:09 16,6 C 0,0 C 71 % 0 % 1010,9 hPa 0,0 l/m 8,9 km/h (2 Bft) S-SO22.5 160 0 min
19.10.2017 11:14 16,8 C 0,0 C 71 % 0 % 1010,9 hPa 0,0 l/m 8,9 km/h (2 Bft) S22.5 175 0 min
19.10.2017 11:20 17,1 C 0,0 C 70 % 0 % 1009,9 hPa 0,0 l/m 1,6 km/h (1 Bft) SO67.5 140 0 min
19.10.2017 11:24 17,2 C 0,0 C 71 % 0 % 1009,9 hPa 0,0 l/m 4,8 km/h (1 Bft) SO22.5 145 0 min
19.10.2017 11:29 17,3 C 0,0 C 70 % 0 % 1009,9 hPa 0,0 l/m 9,8 km/h (2 Bft) SO67.5 145 0 min
19.10.2017 11:34 17,6 C 0,0 C 69 % 0 % 1009,9 hPa 0,0 l/m 9,7 km/h (2 Bft) S-SO67.5 165 0 min
19.10.2017 11:39 17,6 C 0,0 C 68 % 0 % 1009,9 hPa 0,0 l/m 13,5 km/h (3 Bft) S22.5 175 0 min
19.10.2017 11:45 17,7 C 0,0 C 68 % 0 % 1009,9 hPa 0,0 l/m 13,9 km/h (3 Bft) S-SO45 155 0 min
19.10.2017 11:49 17,8 C 0,0 C 69 % 0 % 1009,9 hPa 0,0 l/m 9,3 km/h (2 Bft) SO45 145 0 min
19.10.2017 11:54 17,9 C 0,0 C 68 % 0 % 1009,9 hPa 0,0 l/m 9,8 km/h (2 Bft) S-SO45 160 0 min
19.10.2017 11:59 18,0 C 0,0 C 69 % 0 % 1009,9 hPa 0,0 l/m 1,8 km/h (1 Bft) S-SO67.5 150 0 min
19.10.2017 12:04 18,1 C 0,0 C 68 % 0 % 1009,9 hPa 0,0 l/m 1,5 km/h (1 Bft) S-SO45 150 0 min
19.10.2017 12:09 18,3 C 0,0 C 67 % 0 % 1009,9 hPa 0,0 l/m 10,0 km/h (2 Bft) SO45 145 0 min
19.10.2017 12:14 18,4 C 0,0 C 67 % 0 % 1009,9 hPa 0,0 l/m 12,5 km/h (2 Bft) S-SO45 160 0 min
19.10.2017 12:19 18,5 C 0,0 C 67 % 0 % 1009,9 hPa 0,0 l/m 9,6 km/h (2 Bft) S-SO45 155 0 min
19.10.2017 12:25 18,7 C 0,0 C 66 % 0 % 1009,9 hPa 0,0 l/m 0,9 km/h (0 Bft) S-SO45 150 0 min
19.10.2017 12:29 18,8 C 0,0 C 66 % 0 % 1009,9 hPa 0,0 l/m 1,6 km/h (1 Bft) SO45 135 0 min
19.10.2017 12:34 18,8 C 0,0 C 66 % 0 % 1009,9 hPa 0,0 l/m 6,5 km/h (2 Bft) SO45 145 0 min
19.10.2017 12:39 19,1 C 0,0 C 65 % 0 % 1009,9 hPa 0,0 l/m 7,9 km/h (2 Bft) S-SO67.5 160 0 min
19.10.2017 12:44 19,4 C 0,0 C 65 % 0 % 1009,9 hPa 0,0 l/m 9,6 km/h (2 Bft) S-SO45 160 0 min
19.10.2017 12:50 19,6 C 0,0 C 65 % 0 % 1009,9 hPa 0,0 l/m 9,8 km/h (2 Bft) S-SO45 160 0 min
19.10.2017 12:54 19,6 C 0,0 C 64 % 0 % 1009,9 hPa 0,0 l/m 12,1 km/h (2 Bft) S22.5 170 0 min
19.10.2017 12:59 19,8 C 0,0 C 64 % 0 % 1009,9 hPa 0,0 l/m 10,3 km/h (2 Bft) S22.5 170 0 min
19.10.2017 13:04 20,0 C 0,0 C 64 % 0 % 1009,9 hPa 0,0 l/m 13,6 km/h (3 Bft) S22.5 175 0 min
19.10.2017 13:09 20,1 C 0,0 C 63 % 0 % 1009,9 hPa 0,0 l/m 12,5 km/h (2 Bft) S45 175 0 min
19.10.2017 13:14 20,3 C 0,0 C 63 % 0 % 1009,9 hPa 0,0 l/m 9,2 km/h (2 Bft) SO67.5 135 0 min
19.10.2017 13:19 20,3 C 0,0 C 63 % 0 % 1009,9 hPa 0,0 l/m 10,8 km/h (2 Bft) S-SO22.5 160 0 min
19.10.2017 13:24 20,4 C 0,0 C 62 % 0 % 1009,9 hPa 0,0 l/m 13,6 km/h (3 Bft) S-SO22.5 160 0 min
19.10.2017 13:29 20,4 C 0,0 C 62 % 0 % 1008,9 hPa 0,0 l/m 10,4 km/h (2 Bft) S-SO22.5 165 0 min
19.10.2017 13:34 20,4 C 0,0 C 61 % 0 % 1008,9 hPa 0,0 l/m 16,1 km/h (3 Bft) S-SO22.5 155 0 min
19.10.2017 13:39 20,4 C 0,0 C 62 % 0 % 1008,9 hPa 0,0 l/m 14,5 km/h (3 Bft) S-SO45 155 0 min
19.10.2017 13:44 20,8 C 0,0 C 61 % 0 % 1008,9 hPa 0,0 l/m 8,9 km/h (2 Bft) S-SO45 160 0 min
19.10.2017 13:49 20,9 C 0,0 C 61 % 0 % 1008,9 hPa 0,0 l/m 15,4 km/h (3 Bft) S-SO45 160 0 min
19.10.2017 13:54 20,9 C 0,0 C 60 % 0 % 1008,9 hPa 0,0 l/m 18,5 km/h (3 Bft) S-SO45 150 0 min
19.10.2017 14:00 21,0 C 0,0 C 61 % 0 % 1008,9 hPa 0,0 l/m 15,1 km/h (3 Bft) S-SO45 150 0 min
19.10.2017 14:04 21,2 C 0,0 C 60 % 0 % 1008,9 hPa 0,0 l/m 13,0 km/h (3 Bft) S45 170 0 min
19.10.2017 14:09 21,2 C 0,0 C 59 % 0 % 1008,9 hPa 0,0 l/m 15,4 km/h (3 Bft) S22.5 170 0 min
19.10.2017 14:15 21,2 C 0,0 C 59 % 0 % 1008,9 hPa 0,0 l/m 14,3 km/h (3 Bft) S22.5 180 0 min
19.10.2017 14:19 21,0 C 0,0 C 59 % 0 % 1008,9 hPa 0,0 l/m 19,0 km/h (3 Bft) S45 170 0 min
19.10.2017 14:24 21,0 C 0,0 C 60 % 0 % 1008,9 hPa 0,0 l/m 18,3 km/h (3 Bft) S22.5 175 0 min
19.10.2017 14:29 21,0 C 0,0 C 60 % 0 % 1008,9 hPa 0,0 l/m 16,1 km/h (3 Bft) S-SO45 165 0 min
19.10.2017 14:34 21,1 C 0,0 C 60 % 0 % 1008,9 hPa 0,0 l/m 16,8 km/h (3 Bft) S22.5 170 0 min
19.10.2017 14:39 21,2 C 0,0 C 60 % 0 % 1007,9 hPa 0,0 l/m 17,6 km/h (3 Bft) S22.5 170 0 min
19.10.2017 14:44 21,2 C 0,0 C 60 % 0 % 1007,9 hPa 0,0 l/m 14,1 km/h (3 Bft) S22.5 170 0 min
19.10.2017 14:49 21,3 C 0,0 C 61 % 0 % 1007,9 hPa 0,0 l/m 12,5 km/h (2 Bft) S22.5 170 0 min
19.10.2017 14:54 21,2 C 0,0 C 60 % 0 % 1007,9 hPa 0,0 l/m 14,1 km/h (3 Bft) S22.5 170 0 min
19.10.2017 14:59 21,2 C 0,0 C 60 % 0 % 1007,9 hPa 0,0 l/m 14,6 km/h (3 Bft) S22.5 170 0 min
19.10.2017 15:04 21,2 C 0,0 C 60 % 0 % 1007,9 hPa 0,0 l/m 16,7 km/h (3 Bft) S22.5 175 0 min
19.10.2017 15:09 21,4 C 0,0 C 60 % 0 % 1007,9 hPa 0,0 l/m 12,8 km/h (3 Bft) S-SO45 165 0 min
19.10.2017 15:14 21,4 C 0,0 C 60 % 0 % 1007,9 hPa 0,0 l/m 15,7 km/h (3 Bft) S67.5 170 0 min
19.10.2017 15:19 21,5 C 0,0 C 60 % 0 % 1007,9 hPa 0,0 l/m 13,0 km/h (3 Bft) S-SO22.5 160 0 min
19.10.2017 15:25 21,7 C 0,0 C 59 % 0 % 1007,9 hPa 0,0 l/m 14,1 km/h (3 Bft) S22.5 170 0 min
19.10.2017 15:29 21,8 C 0,0 C 59 % 0 % 1007,9 hPa 0,0 l/m 12,8 km/h (3 Bft) S-SO22.5 160 0 min
19.10.2017 15:34 21,8 C 0,0 C 58 % 0 % 1007,9 hPa 0,0 l/m 17,0 km/h (3 Bft) S-SO45 165 0 min
19.10.2017 15:39 22,0 C 0,0 C 59 % 0 % 1007,9 hPa 0,0 l/m 10,8 km/h (2 Bft) S-SO45 160 0 min
19.10.2017 15:44 22,0 C 0,0 C 58 % 0 % 1007,9 hPa 0,0 l/m 12,5 km/h (2 Bft) S-SO45 150 0 min
19.10.2017 15:50 21,8 C 0,0 C 59 % 0 % 1007,9 hPa 0,0 l/m 15,9 km/h (3 Bft) S45 175 0 min
19.10.2017 15:54 21,8 C 0,0 C 59 % 0 % 1007,9 hPa 0,0 l/m 19,0 km/h (3 Bft) S22.5 170 0 min
19.10.2017 15:59 21,6 C 0,0 C 59 % 0 % 1007,9 hPa 0,0 l/m 17,2 km/h (3 Bft) S22.5 170 0 min
19.10.2017 16:05 21,5 C 0,0 C 60 % 0 % 1007,9 hPa 0,0 l/m 14,5 km/h (3 Bft) S22.5 170 0 min
19.10.2017 16:09 21,4 C 0,0 C 60 % 0 % 1007,9 hPa 0,0 l/m 15,6 km/h (3 Bft) S-SO45 165 0 min
19.10.2017 16:14 21,3 C 0,0 C 60 % 0 % 1007,9 hPa 0,0 l/m 14,5 km/h (3 Bft) S-SO22.5 160 0 min
19.10.2017 16:19 21,2 C 0,0 C 60 % 0 % 1007,9 hPa 0,0 l/m 14,8 km/h (3 Bft) S22.5 170 0 min
19.10.2017 16:24 21,2 C 0,0 C 60 % 0 % 1007,9 hPa 0,0 l/m 14,3 km/h (3 Bft) S45 170 0 min
19.10.2017 16:29 21,1 C 0,0 C 60 % 0 % 1007,9 hPa 0,0 l/m 14,8 km/h (3 Bft) S22.5 170 0 min
19.10.2017 16:34 21,0 C 0,0 C 60 % 0 % 1007,9 hPa 0,0 l/m 20,8 km/h (4 Bft) S22.5 175 0 min
19.10.2017 16:39 21,0 C 0,0 C 61 % 0 % 1007,9 hPa 0,0 l/m 14,7 km/h (3 Bft) S22.5 170 0 min
19.10.2017 16:44 20,9 C 0,0 C 61 % 0 % 1007,9 hPa 0,0 l/m 17,6 km/h (3 Bft) S-SO22.5 165 0 min
19.10.2017 16:49 20,9 C 0,0 C 62 % 0 % 1007,9 hPa 0,0 l/m 12,8 km/h (3 Bft) S-SO22.5 160 0 min
19.10.2017 16:54 20,9 C 0,0 C 62 % 0 % 1007,9 hPa 0,0 l/m 13,1 km/h (3 Bft) S-SO22.5 165 0 min
19.10.2017 17:00 20,8 C 0,0 C 62 % 0 % 1007,9 hPa 0,0 l/m 15,8 km/h (3 Bft) S45 170 0 min
19.10.2017 17:04 20,7 C 0,0 C 62 % 0 % 1007,9 hPa 0,0 l/m 14,8 km/h (3 Bft) S-SO45 165 0 min
19.10.2017 17:09 20,6 C 0,0 C 63 % 0 % 1007,9 hPa 0,0 l/m 12,6 km/h (3 Bft) S-SO45 160 0 min
19.10.2017 17:14 20,6 C 0,0 C 63 % 0 % 1007,9 hPa 0,0 l/m 4,9 km/h (1 Bft) S-SO22.5 155 0 min
19.10.2017 17:19 20,6 C 0,0 C 63 % 0 % 1006,9 hPa 0,0 l/m 0,7 km/h (0 Bft) S 170 0 min
19.10.2017 17:24 20,5 C 0,0 C 63 % 0 % 1006,9 hPa 0,0 l/m 0,9 km/h (0 Bft) SO22.5 140 0 min
19.10.2017 17:29 20,5 C 0,0 C 63 % 0 % 1006,9 hPa 0,0 l/m 4,4 km/h (1 Bft) S-SO22.5 155 0 min
19.10.2017 17:34 20,4 C 0,0 C 64 % 0 % 1006,9 hPa 0,0 l/m 0,4 km/h (0 Bft) SO22.5 130 0 min
19.10.2017 17:40 20,2 C 0,0 C 64 % 0 % 1007,9 hPa 0,0 l/m 5,9 km/h (2 Bft) S-SO22.5 150 0 min
19.10.2017 17:44 20,2 C 0,0 C 65 % 0 % 1006,9 hPa 0,0 l/m 0,3 km/h (0 Bft) SO22.5 145 0 min
19.10.2017 17:49 20,0 C 0,0 C 66 % 0 % 1006,9 hPa 0,0 l/m 0,7 km/h (0 Bft) S-SO45 150 0 min
19.10.2017 17:54 19,9 C 0,0 C 66 % 0 % 1006,9 hPa 0,0 l/m 8,4 km/h (2 Bft) S-SO45 155 0 min
19.10.2017 17:59 19,8 C 0,0 C 66 % 0 % 1006,9 hPa 0,0 l/m 1,0 km/h (0 Bft) SO22.5 145 0 min
19.10.2017 18:04 19,8 C 0,0 C 66 % 0 % 1006,9 hPa 0,0 l/m 0,9 km/h (0 Bft) S-SO22.5 155 0 min
19.10.2017 18:09 19,6 C 0,0 C 66 % 0 % 1006,9 hPa 0,0 l/m 1,0 km/h (0 Bft) SO22.5 145 0 min
19.10.2017 18:14 19,4 C 0,0 C 67 % 0 % 1006,9 hPa 0,0 l/m 0,9 km/h (0 Bft) SO22.5 145 0 min
19.10.2017 18:20 19,4 C 0,0 C 67 % 0 % 1007,9 hPa 0,0 l/m 0,9 km/h (0 Bft) SO45 140 0 min
19.10.2017 18:24 19,2 C 0,0 C 67 % 0 % 1007,9 hPa 0,0 l/m 1,0 km/h (0 Bft) S-SO45 150 0 min
19.10.2017 18:29 19,0 C 0,0 C 68 % 0 % 1007,9 hPa 0,0 l/m 8,1 km/h (2 Bft) SO22.5 135 0 min
19.10.2017 18:34 19,0 C 0,0 C 68 % 0 % 1007,9 hPa 0,0 l/m 2,1 km/h (1 Bft) SO22.5 130 0 min
19.10.2017 18:39 18,9 C 0,0 C 69 % 0 % 1006,9 hPa 0,0 l/m 9,2 km/h (2 Bft) SO45 145 0 min
19.10.2017 18:45 18,8 C 0,0 C 69 % 0 % 1007,9 hPa 0,0 l/m 7,9 km/h (2 Bft) SO45 140 0 min
19.10.2017 18:49 18,7 C 0,0 C 70 % 0 % 1007,9 hPa 0,0 l/m 9,0 km/h (2 Bft) SO22.5 140 0 min
19.10.2017 18:54 18,7 C 0,0 C 70 % 0 % 1007,9 hPa 0,0 l/m 11,6 km/h (2 Bft) S-SO45 155 0 min
19.10.2017 18:59 18,8 C 0,0 C 69 % 0 % 1007,9 hPa 0,0 l/m 12,3 km/h (2 Bft) S-SO45 150 0 min
19.10.2017 19:04 18,9 C 0,0 C 69 % 0 % 1007,9 hPa 0,0 l/m 10,4 km/h (2 Bft) SO45 145 0 min
19.10.2017 19:09 18,9 C 0,0 C 69 % 0 % 1007,9 hPa 0,0 l/m 11,8 km/h (2 Bft) SO22.5 145 0 min
19.10.2017 19:14 18,8 C 0,0 C 69 % 0 % 1007,9 hPa 0,0 l/m 15,7 km/h (3 Bft) SO22.5 145 0 min
19.10.2017 19:19 18,8 C 0,0 C 69 % 0 % 1007,9 hPa 0,0 l/m 15,1 km/h (3 Bft) S-SO22.5 155 0 min
19.10.2017 19:25 18,8 C 0,0 C 69 % 0 % 1007,9 hPa 0,0 l/m 13,1 km/h (3 Bft) S-SO22.5 155 0 min
19.10.2017 19:29 18,6 C 0,0 C 69 % 0 % 1007,9 hPa 0,0 l/m 9,7 km/h (2 Bft) S-SO22.5 155 0 min
19.10.2017 19:34 18,5 C 0,0 C 69 % 0 % 1007,9 hPa 0,0 l/m 12,6 km/h (3 Bft) SO22.5 145 0 min
19.10.2017 19:39 18,4 C 0,0 C 69 % 0 % 1007,9 hPa 0,0 l/m 13,8 km/h (3 Bft) S-SO45 150 0 min
19.10.2017 19:44 18,4 C 0,0 C 70 % 0 % 1007,9 hPa 0,0 l/m 19,0 km/h (3 Bft) S-SO45 155 0 min
19.10.2017 19:50 18,3 C 0,0 C 70 % 0 % 1007,9 hPa 0,0 l/m 14,1 km/h (3 Bft) S-SO45 155 0 min
19.10.2017 19:54 18,2 C 0,0 C 70 % 0 % 1007,9 hPa 0,0 l/m 11,8 km/h (2 Bft) S-SO22.5 160 0 min
19.10.2017 19:59 18,2 C 0,0 C 70 % 0 % 1007,9 hPa 0,0 l/m 12,7 km/h (3 Bft) S-SO22.5 160 0 min
19.10.2017 20:04 18,2 C 0,0 C 71 % 0 % 1007,9 hPa 0,0 l/m 11,6 km/h (2 Bft) S-SO22.5 160 0 min
19.10.2017 20:09 18,1 C 0,0 C 71 % 0 % 1007,9 hPa 0,0 l/m 12,5 km/h (2 Bft) S-SO22.5 160 0 min
19.10.2017 20:14 18,0 C 0,0 C 71 % 0 % 1007,9 hPa 0,0 l/m 10,1 km/h (2 Bft) S-SO22.5 160 0 min
19.10.2017 20:19 17,9 C 0,0 C 71 % 0 % 1007,9 hPa 0,0 l/m 10,9 km/h (2 Bft) S-SO22.5 155 0 min
19.10.2017 20:24 17,8 C 0,0 C 72 % 0 % 1007,9 hPa 0,0 l/m 9,0 km/h (2 Bft) SO22.5 145 0 min
19.10.2017 20:29 17,8 C 0,0 C 72 % 0 % 1007,9 hPa 0,0 l/m 9,2 km/h (2 Bft) S-SO22.5 150 0 min
19.10.2017 20:34 17,8 C 0,0 C 72 % 0 % 1007,9 hPa 0,0 l/m 9,8 km/h (2 Bft) S-SO45 150 0 min
19.10.2017 20:39 17,7 C 0,0 C 72 % 0 % 1007,9 hPa 0,0 l/m 9,4 km/h (2 Bft) SO22.5 140 0 min
19.10.2017 20:44 17,6 C 0,0 C 72 % 0 % 1007,9 hPa 0,0 l/m 7,6 km/h (2 Bft) SO22.5 140 0 min
19.10.2017 20:49 17,5 C 0,0 C 72 % 0 % 1007,9 hPa 0,0 l/m 6,7 km/h (2 Bft) SO22.5 135 0 min
19.10.2017 20:55 17,4 C 0,0 C 72 % 0 % 1007,9 hPa 0,0 l/m 0,7 km/h (0 Bft) SO 135 0 min
19.10.2017 20:59 17,3 C 0,0 C 73 % 0 % 1007,9 hPa 0,0 l/m 0,7 km/h (0 Bft) SO 135 0 min
19.10.2017 21:04 17,3 C 0,0 C 73 % 0 % 1007,9 hPa 0,0 l/m 1,9 km/h (1 Bft) SO22.5 135 0 min
19.10.2017 21:09 17,1 C 0,0 C 73 % 0 % 1007,9 hPa 0,0 l/m 5,9 km/h (2 Bft) O-SO45 105 0 min
19.10.2017 21:14 17,0 C 0,0 C 73 % 0 % 1007,9 hPa 0,0 l/m 8,1 km/h (2 Bft) O-SO45 120 0 min
19.10.2017 21:19 17,0 C 0,0 C 73 % 0 % 1007,9 hPa 0,0 l/m 7,2 km/h (2 Bft) SO22.5 145 0 min
19.10.2017 21:24 17,0 C 0,0 C 73 % 0 % 1007,9 hPa 0,0 l/m 6,7 km/h (2 Bft) SO22.5 130 0 min
19.10.2017 21:29 17,1 C 0,0 C 74 % 0 % 1007,9 hPa 0,0 l/m 10,9 km/h (2 Bft) SO45 145 0 min
19.10.2017 21:35 17,1 C 0,0 C 73 % 0 % 1007,9 hPa 0,0 l/m 11,2 km/h (2 Bft) SO22.5 140 0 min
19.10.2017 21:39 17,2 C 0,0 C 73 % 0 % 1007,9 hPa 0,0 l/m 13,5 km/h (3 Bft) SO22.5 145 0 min
19.10.2017 21:44 17,4 C 0,0 C 73 % 0 % 1007,9 hPa 0,0 l/m 13,0 km/h (3 Bft) SO22.5 145 0 min
19.10.2017 21:49 17,4 C 0,0 C 73 % 0 % 1007,9 hPa 0,0 l/m 14,6 km/h (3 Bft) S-SO22.5 155 0 min
19.10.2017 21:54 17,5 C 0,0 C 73 % 0 % 1007,9 hPa 0,0 l/m 15,0 km/h (3 Bft) S-SO22.5 150 0 min
19.10.2017 22:00 17,4 C 0,0 C 72 % 0 % 1007,9 hPa 0,0 l/m 14,7 km/h (3 Bft) S-SO22.5 150 0 min
19.10.2017 22:04 17,4 C 0,0 C 72 % 0 % 1007,9 hPa 0,0 l/m 14,8 km/h (3 Bft) S-SO22.5 155 0 min
19.10.2017 22:09 17,4 C 0,0 C 72 % 0 % 1007,9 hPa 0,0 l/m 14,8 km/h (3 Bft) S-SO22.5 155 0 min
19.10.2017 22:14 17,4 C 0,0 C 73 % 0 % 1007,9 hPa 0,0 l/m 15,6 km/h (3 Bft) S-SO22.5 160 0 min
19.10.2017 22:19 17,4 C 0,0 C 72 % 0 % 1007,9 hPa 0,0 l/m 14,0 km/h (3 Bft) S-SO45 155 0 min
19.10.2017 22:24 17,4 C 0,0 C 72 % 0 % 1007,9 hPa 0,0 l/m 15,5 km/h (3 Bft) S-SO45 155 0 min
19.10.2017 22:29 17,3 C 0,0 C 72 % 0 % 1007,9 hPa 0,0 l/m 12,5 km/h (2 Bft) S-SO22.5 160 0 min
19.10.2017 22:34 17,3 C 0,0 C 72 % 0 % 1007,9 hPa 0,0 l/m 14,0 km/h (3 Bft) S-SO45 155 0 min
19.10.2017 22:39 17,3 C 0,0 C 73 % 0 % 1007,9 hPa 0,0 l/m 15,7 km/h (3 Bft) S-SO45 165 0 min
19.10.2017 22:44 17,3 C 0,0 C 72 % 0 % 1007,9 hPa 0,0 l/m 16,1 km/h (3 Bft) S-SO22.5 160 0 min
19.10.2017 22:49 17,3 C 0,0 C 72 % 0 % 1007,9 hPa 0,0 l/m 16,8 km/h (3 Bft) S-SO45 155 0 min
19.10.2017 22:55 17,2 C 0,0 C 73 % 0 % 1007,9 hPa 0,0 l/m 12,9 km/h (3 Bft) S-SO22.5 155 0 min
19.10.2017 22:59 17,1 C 0,0 C 73 % 0 % 1007,9 hPa 0,0 l/m 10,6 km/h (2 Bft) SO45 145 0 min
19.10.2017 23:04 16,9 C 0,0 C 73 % 0 % 1007,9 hPa 0,0 l/m 9,7 km/h (2 Bft) S-SO45 150 0 min
19.10.2017 23:10 16,8 C 0,0 C 73 % 0 % 1007,9 hPa 0,0 l/m 13,7 km/h (3 Bft) S-SO22.5 155 0 min
19.10.2017 23:14 16,8 C 0,0 C 73 % 0 % 1007,9 hPa 0,0 l/m 11,1 km/h (2 Bft) S-SO22.5 165 0 min
19.10.2017 23:19 16,8 C 0,0 C 73 % 0 % 1007,9 hPa 0,0 l/m 13,7 km/h (3 Bft) S-SO45 160 0 min
19.10.2017 23:24 16,8 C 0,0 C 73 % 0 % 1007,9 hPa 0,0 l/m 12,1 km/h (2 Bft) S-SO22.5 155 0 min
19.10.2017 23:29 16,8 C 0,0 C 73 % 0 % 1007,9 hPa 0,0 l/m 13,7 km/h (3 Bft) S-SO22.5 160 0 min
19.10.2017 23:34 16,7 C 0,0 C 74 % 0 % 1007,9 hPa 0,0 l/m 13,6 km/h (3 Bft) S-SO22.5 160 0 min
19.10.2017 23:39 16,6 C 0,0 C 74 % 0 % 1007,9 hPa 0,0 l/m 10,4 km/h (2 Bft) S-SO22.5 150 0 min
19.10.2017 23:44 16,6 C 0,0 C 74 % 0 % 1007,9 hPa 0,0 l/m 13,5 km/h (3 Bft) S-SO22.5 155 0 min
19.10.2017 23:49 16,6 C 0,0 C 74 % 0 % 1007,9 hPa 0,0 l/m 15,3 km/h (3 Bft) S-SO22.5 150 0 min
19.10.2017 23:55 16,7 C 0,0 C 74 % 0 % 1007,9 hPa 0,0 l/m 15,4 km/h (3 Bft) S-SO45 160 0 min
19.10.2017 23:59 16,8 C 0,0 C 73 % 0 % 1007,9 hPa 0,0 l/m 17,0 km/h (3 Bft) S-SO22.5 150 0 min
_ Min-Zeit 05:15 00:04 15:34 00:04 17:19 - 04:29 - - -
Minimum _ 12,4 C 0,0 C 58 % 0 % 1006,9 hPa - 0,0 km/h (0 Bft) - - -
_ Max-Zeit 15:39 00:04 05:29 00:04 00:04 00:04 16:34 - - 00:04
Maximum _ 22,0 C 0,0 C 81 % 0 % 1010,9 hPa 0,0 l/m 20,8 km/h
S (4 Bft)
- - 0 min
Durchschnitt _ 16,4 C 0,0 C 73 % 0 % 1009,4 hPa #0,0 l/m 7,8 km/h (2 Bft) S-SO - #0 min.